Hourly Weather Roundup
Issued by NWS Central Illinois

Home | Current Version | Previous Version | Text Only | Print | Product List | Glossary On
Versions: 1 2 3 4 5 6 7 8 9 10 11 12 13 14 15 16 17 18 19 20 21 22 23 24 25 26 27 28 29 30 31 32 33 34 35 36 37 38 39 40 41 42 43 44 45 46 47 48 49 50
000
NZUS43 KILX 020610
HWRILX

AREA WEATHER ROUNDUP
NATIONAL WEATHER SERVICE, LINCOLN IL
100 AM CDT THU JUL 02 2015


CITY           SKY/WX    TMP DP  RH WIND       PRES   REMARKS
BLOOMINGTON    CLOUDY    60  55  83 NE13      29.97S
6HR MIN TEMP:  60; 6HR MAX TEMP:  72;

CHAMPAIGN      MOCLDY    61  53  75 NE12      29.94S
6HR MIN TEMP:  61; 6HR MAX TEMP:  73;

DANVILLE       NOT AVBL
DECATUR        CLOUDY    64  60  87 NE8       29.93R
6HR MIN TEMP:  64; 6HR MAX TEMP:  74; 6HR PCP:  0.11;

EFFINGHAM      NOT AVBL
FLORA          NOT AVBL
GALESBURG      NOT AVBL
JACKSONVILLE   NOT AVBL
LACON          NOT AVBL
LAWRENCEVILLE  HVY RAIN  70  69  97 N3        29.91R FOG
6HR MIN TEMP:  69; 6HR MAX TEMP:  78; 6HR PCP:  0.94;

LITCHFIELD     NOT AVBL
$$


CITY           SKY/WX    TMP DP  RH WIND       PRES   REMARKS
LINCOLN        NOT AVBL
MACOMB         NOT AVBL
MATTOON        CLOUDY    64  59  83 NE10      29.92R
6HR MIN TEMP:  64; 6HR MAX TEMP:  75; 6HR PCP:  0.16;

MT CARMEL AP   NOT AVBL
OLNEY-NOBLE AP NOT AVBL
PARIS          NOT AVBL
PEORIA         CLOUDY    65  54  67 E15       29.95S
6HR MIN TEMP:  65; 6HR MAX TEMP:  75;

PONTIAC        NOT AVBL
RANTOUL        NOT AVBL
ROBINSON       NOT AVBL
SPRINGFIELD    CLOUDY    69  62  78 E13       29.92R
6HR MIN TEMP:  69; 6HR MAX TEMP:  76;

TAYLORVILLE    NOT AVBL
$$

...REGIONAL REPORTS...


CITY           SKY/WX    TMP DP  RH WIND       PRES   REMARKS
CHICAGO O`HARE PTCLDY    54  50  86 N7        29.99F
KANKAKEE       NOT AVBL
MOLINE         CLOUDY    65  56  72 E13       29.97S
MOUNT STERLING NOT AVBL
MOUNT VERNON   CLOUDY    72  68  88 NE6       29.88F
PITTSFIELD     NOT AVBL
QUINCY         MOCLDY    69  66  90 E6        29.91R
ROCKFORD       CLEAR     55  50  83 CALM      30.03R
$$


CITY           SKY/WX    TMP DP  RH WIND       PRES   REMARKS
BURLINGTON     CLOUDY    67  59  75 NE10      29.94R
CEDAR RAPIDS   PTCLDY    59  54  83 NE8       29.97F
DES MOINES     CLEAR     63  56  78 E10       29.95S
KIRKSVILLE     CLOUDY    68  66  93 NE7       29.93R FOG
OTTUMWA        PTCLDY    64  59  83 E8        29.92F
ST LOUIS       LGT RAIN  74  70  87 E5        29.87F
$$


CITY           SKY/WX    TMP DP  RH WIND       PRES   REMARKS
TERRE HAUTE    CLOUDY    67  63  87 N10       29.91R
EVANSVILLE     LGT RAIN  73  70  90 SW9       29.90F
INDIANAPOLIS   CLOUDY    67  58  72 NE12      29.91S
LAFAYETTE      CLOUDY    59  52  77 NE7       29.95F
MADISON        CLEAR     53  49  86 CALM      30.01S
MILWAUKEE      CLEAR     52  47  83 N7        30.02S
$$




USA.gov is the U.S. government's official web portal to all federal, state and local government web resources and services.